Weather History for Florence, SC

Change the Weather History Date:

Saturday, May 11, 2013

  Actual Average Record
Temperature  
Mean Temperature 75 °F 70 °F  
Max Temperature 85 °F 82 °F 96 °F (1963)
Min Temperature 65 °F 58 °F 38 °F (1966)
Degree Days  
Heating Degree Days 0 1  
Month to date heating degree days 12 15  
Since 1 July heating degree days 2323 2515  
Cooling Degree Days 10 6  
Month to date cooling degree days 25 52  
Year to date cooling degree days 120 148  
Growing Degree Days 24 (Base 50)    
Moisture  
Dew Point 62 °F    
Average Humidity 65    
Maximum Humidity 87    
Minimum Humidity 43    
Precipitation  
Precipitation 0.00 in 0.09 in 1.76 in (2008)
Month to date precipitation 0.58 0.98  
Year to date precipitation 14.55 13.08  
Sea Level Pressure  
Sea Level Pressure 29.91 in    
Wind  
Wind Speed 8 mph (SW)    
Max Wind Speed 17 mph    
Max Gust Speed 23 mph    
Visibility 10 miles    
Events      
T = Trace of Precipitation, MM = Missing Value Source: NWS Daily Summary

Daily Weather History Graph

Daily Weather History Graph

Search for Another Location

Airport:

Trip Planner

Search our weather history database for the weather conditions in past years. The results will help you decide how hot, cold, wet, or windy it might be!

Date:

Astronomy

May. 11, 2013 Rise Set
Actual Time 6:19 AM EDT 8:10 PM EDT
Civil Twilight 5:52 AM EDT 8:38 PM EDT
Nautical Twilight 5:19 AM EDT 9:11 PM EDT
Astronomical Twilight 4:44 AM EDT 9:47 PM EDT
Moon 7:27 AM EDT (5/11) 9:48 PM EDT (5/11)
Length of Visible Light 14h 45m
Length of Day
13h 51m
Waxing Crescent, 3% of the Moon is Illuminated
May 11
Waxing Crescent
May 18
First Quarter
May 25
Full
May 31
Last Quarter
Jun 8
New

Hourly Weather History & Observations

Time (EDT) Temp. Heat Index Dew Point Humidity Pressure Visibility Wind Dir Wind Speed Gust Speed Precip Events Conditions
12:53 AM 71.1 °F - 59.0 °F 66% 29.99 in 10.0 mi SSW 6.9 mph - N/A   Clear
1:53 AM 70.0 °F - 59.0 °F 68% 30.00 in 10.0 mi SSW 8.1 mph - N/A   Clear
2:53 AM 68.0 °F - 59.0 °F 73% 29.99 in 10.0 mi SSW 5.8 mph - N/A   Clear
3:53 AM 66.9 °F - 60.1 °F 79% 29.98 in 10.0 mi SSW 4.6 mph - N/A   Scattered Clouds
4:53 AM 66.0 °F - 60.1 °F 81% 29.96 in 10.0 mi SSW 3.5 mph - N/A   Scattered Clouds
5:53 AM 64.9 °F - 61.0 °F 87% 29.96 in 10.0 mi SSW 3.5 mph - N/A   Clear
6:53 AM 64.9 °F - 61.0 °F 87% 29.96 in 9.0 mi Calm Calm - N/A   Clear
7:53 AM 66.9 °F - 63.0 °F 87% 29.96 in 9.0 mi SSW 4.6 mph - N/A   Clear
8:53 AM 72.0 °F - 66.0 °F 81% 29.94 in 10.0 mi SW 8.1 mph - N/A   Scattered Clouds
9:53 AM 77.0 °F - 64.9 °F 66% 29.94 in 10.0 mi SSW 8.1 mph - N/A   Clear
10:53 AM 79.0 °F - 63.0 °F 58% 29.93 in 10.0 mi West 6.9 mph - N/A   Clear
11:53 AM 78.1 °F - 62.1 °F 58% 29.94 in 10.0 mi WSW 8.1 mph - N/A   Clear
12:53 PM 82.0 °F 83.1 °F 63.0 °F 52% 29.91 in 10.0 mi WSW 11.5 mph - N/A   Partly Cloudy
1:53 PM 82.9 °F 83.2 °F 60.1 °F 46% 29.89 in 10.0 mi SSW 11.5 mph - N/A   Clear
2:51 PM 84.2 °F 84.4 °F 60.8 °F 45% 29.89 in 10.0 mi WSW 12.7 mph - N/A   Clear
2:53 PM 84.0 °F 83.8 °F 59.0 °F 43% 29.87 in 10.0 mi WSW 12.7 mph - N/A   Clear
3:53 PM 84.0 °F 83.8 °F 59.0 °F 43% 29.86 in 10.0 mi SW 15.0 mph 21.9 mph N/A   Partly Cloudy
4:53 PM 82.9 °F 83.7 °F 62.1 °F 49% 29.85 in 10.0 mi SW 11.5 mph 16.1 mph N/A   Scattered Clouds
5:53 PM 82.0 °F 83.0 °F 62.1 °F 51% 29.83 in 10.0 mi SW 12.7 mph - N/A   Partly Cloudy
6:53 PM 80.1 °F 81.5 °F 63.0 °F 56% 29.83 in 10.0 mi WSW 8.1 mph - N/A   Clear
7:53 PM 78.1 °F - 63.0 °F 60% 29.84 in 10.0 mi SW 6.9 mph - N/A   Clear
8:53 PM 77.0 °F - 62.1 °F 60% 29.85 in 10.0 mi SSW 6.9 mph - N/A   Clear
9:53 PM 75.9 °F - 62.1 °F 62% 29.86 in 10.0 mi SW 8.1 mph - N/A   Clear
10:53 PM 73.9 °F - 63.0 °F 68% 29.86 in 10.0 mi SW 5.8 mph - N/A   Clear
11:53 PM 73.9 °F - 63.0 °F 68% 29.86 in 10.0 mi SW 8.1 mph - N/A   Clear